DW5872 Weather Reports


time (UTC)temp
F
wind
direction
speed
knots
gust
knots
rain 1hr
in
rain 24hr
in
rain mn
in
humidity
%
barometer
mb
20260504214556 75 265 2.6 11.3 0.00 0.00 0.00 33 1009.1
20260504213053 75 289 2.6 7.8 0.00 0.00 0.00 30 1009.3
20260504211553 75 0 1.7 9.6 0.00 0.00 0.00 30 1009.3
20260504210054 75 273 2.6 9.6 0.00 0.00 0.00 31 1009.3
20260504204602 74 0 1.7 11.3 0.00 0.00 0.00 30 1009.2
20260504203102 75 254 1.7 8.7 0.00 0.00 0.00 29 1009.2
20260504201552 74 272 0.9 7.0 0.00 0.00 0.00 31 1009.3
20260504200054 74 229 0.9 7.8 0.00 0.00 0.00 30 1009.3
20260504194553 74 276 2.6 7.8 0.00 0.00 0.00 31 1009.4
20260504193056 74 256 0.9 8.7 0.00 0.00 0.00 32 1009.5
20260504191606 74 0 0.9 7.0 0.00 0.00 0.00 34 1009.6
20260504190112 74 306 0.9 5.2 0.00 0.00 0.00 34 1009.9
20260504184555 73 310 0.9 8.7 0.00 0.00 0.00 34 1010.1
20260504183101 73 313 0.9 10.4 0.00 0.00 0.00 34 1010.4
20260504181557 73 264 0.9 9.6 0.00 0.00 0.00 34 1010.6
20260504180059 72 260 0.9 8.7 0.00 0.00 0.00 35 1010.6
20260504174554 71 272 1.7 7.8 0.00 0.00 0.00 34 1011.0
20260504173057 71 255 1.7 10.4 0.00 0.00 0.00 36 1011.0
20260504171553 70 258 0.9 7.8 0.00 0.00 0.00 37 1011.1
20260504081553 47 0 0.0 2.6 0.00 0.00 0.00 60 1013.8
20260504044600 51 0 0.0 1.7 0.00 0.00 0.00 50 1013.4
20260504043055 51 0 0.0 3.5 0.00 0.00 0.00 49 1013.2
20260504041601 52 0 0.0 2.6 0.00 0.00 0.00 48 1013.0
20260504040053 52 275 0.0 2.6 0.00 0.00 0.00 47 1013.1
20260504034553 52 0 0.0 2.6 0.00 0.00 0.00 46 1012.9
20260504033054 52 0 0.0 3.5 0.00 0.00 0.00 46 1013.0
20260504031553 53 0 0.0 0.9 0.00 0.00 0.00 45 1012.7
20260504030053 53 0 0.0 1.7 0.00 0.00 0.00 45 1012.6
20260504024616 53 275 0.0 3.5 0.00 0.00 0.00 45 1012.7
20260504023054 53 0 0.0 0.9 0.00 0.00 0.00 44 1012.7
20260504021557 54 0 0.0 1.7 0.00 0.00 0.00 43 1012.6
20260504020055 54 275 0.0 2.6 0.00 0.00 0.00 42 1012.7
20260504014604 54 275 0.0 2.6 0.00 0.00 0.00 42 1012.5
20260504013058 53 275 0.0 0.9 0.00 0.00 0.00 43 1012.5
20260504011555 53 0 0.0 0.9 0.00 0.00 0.00 42 1012.3
20260504010104 54 0 0.0 0.0 0.00 0.00 0.00 41 1012.1
20260504004600 56 0 0.0 0.0 0.00 0.00 0.00 38 1011.9
20260504003055 57 0 0.0 3.5 0.00 0.00 0.00 36 1011.6
20260504001554 58 0 0.0 3.5 0.00 0.00 0.00 34 1011.2
20260504000135 58 275 1.7 5.2 0.00 0.00 0.00 33 1011.0
20260503234601 59 273 0.9 7.0 0.00 0.00 0.00 31 1010.9
20260503233057 60 290 2.6 6.1 0.00 0.00 0.00 30 1010.8
20260503231557 60 0 1.7 8.7 0.00 0.00 0.00 29 1010.7
20260503230058 61 260 2.6 7.0 0.00 0.00 0.00 29 1010.6
20260503224556 61 299 1.7 9.6 0.00 0.00 0.00 29 1010.6
20260503223052 61 292 2.6 8.7 0.00 0.00 0.00 28 1010.5
20260503221558 62 275 3.5 10.4 0.00 0.00 0.00 28 1010.4
20260503220056 62 302 3.5 10.4 0.00 0.00 0.00 28 1010.4